Tracking 28794 objects as of 19-Apr-2024
HD Live streaming from Space Station
objects crossing your sky now

COSMOS 2251 DEB

Track COSMOS 2251 DEB now!
10-day predictions


NORAD ID: 35703
Int'l Code: 1993-036APY
Perigee: 587.4 km
Apogee: 708.9 km
Inclination: 74.0 °
Period: 97.5 minutes
Semi major axis: 7019 km
RCS: 0.0067 m2 (small)
Launch date: June 16, 1993
Source: Commonwealth of Independent States (former USSR) (CIS)
Launch site: PLESETSK MISSILE AND SPACE COMPLEX (PKMTR)

Note: This is SATELLITE DEBRIS
Your satellite tracking list
Your tracking list is empty




NASA's NSSDC Master Catalog

Two Line Element Set (TLE):
1 35703U 93036APY 24106.42285129  .00007086  00000-0  96474-3 0  9999
2 35703  74.0480 163.6920 0086577  33.4722 327.1881 14.76295994576233
Source of the keplerian elements: AFSPC